Data supplied by UK-AIR on 5/4/2008
All Data GMT hour ending 
Status: R =Ratified P=Provisional,P*=As supplied
,,Bristol Centre,,,,,,,,,,,,,,,,,,,,,,,
Date,time,"Carbon monoxide",status,unit,"PM10 particulate matter (Hourly measured)",status,unit,"Nitric oxide",status,unit,"Nitrogen dioxide",status,unit,"Nitrogen oxides as nitrogen dioxide",status,unit,"Ozone",status,unit,"Sulphur dioxide",status,unit
 
01-01-1995,01:00,0.8,R,mgm-3,10,R,ugm-3 (GRAV EQ),4,R,ugm-3,8,R,ugm-3,13,R,ugm-3,56,R,ugm-3,8,R,ugm-3
01-01-1995,02:00,1.3,R,mgm-3,20,R,ugm-3 (GRAV EQ),4,R,ugm-3,23,R,ugm-3,29,R,ugm-3,50,R,ugm-3,27,R,ugm-3
01-01-1995,03:00,0.7,R,mgm-3,18,R,ugm-3 (GRAV EQ),5,R,ugm-3,23,R,ugm-3,31,R,ugm-3,42,R,ugm-3,11,R,ugm-3
01-01-1995,04:00,0.7,R,mgm-3,13,R,ugm-3 (GRAV EQ),4,R,ugm-3,17,R,ugm-3,23,R,ugm-3,52,R,ugm-3,11,R,ugm-3
01-01-1995,05:00,0.7,R,mgm-3,13,R,ugm-3 (GRAV EQ),4,R,ugm-3,17,R,ugm-3,23,R,ugm-3,54,R,ugm-3,13,R,ugm-3
01-01-1995,06:00,0.6,R,mgm-3,12,R,ugm-3 (GRAV EQ),4,R,ugm-3,13,R,ugm-3,19,R,ugm-3,60,R,ugm-3,11,R,ugm-3
01-01-1995,07:00,0.6,R,mgm-3,12,R,ugm-3 (GRAV EQ),3,R,ugm-3,15,R,ugm-3,19,R,ugm-3,58,R,ugm-3,8,R,ugm-3
01-01-1995,08:00,0.6,R,mgm-3,16,R,ugm-3 (GRAV EQ),3,R,ugm-3,17,R,ugm-3,21,R,ugm-3,56,R,ugm-3,8,R,ugm-3
01-01-1995,09:00,0.3,R,mgm-3,9,R,ugm-3 (GRAV EQ),3,R,ugm-3,11,R,ugm-3,15,R,ugm-3,62,R,ugm-3,5,R,ugm-3
01-01-1995,10:00,0.7,R,mgm-3,9,R,ugm-3 (GRAV EQ),4,R,ugm-3,10,R,ugm-3,15,R,ugm-3,64,R,ugm-3,3,R,ugm-3
01-01-1995,11:00,0.6,R,mgm-3,8,R,ugm-3 (GRAV EQ),4,R,ugm-3,10,R,ugm-3,15,R,ugm-3,66,R,ugm-3,5,R,ugm-3
01-01-1995,12:00,0.5,R,mgm-3,17,R,ugm-3 (GRAV EQ),5,R,ugm-3,10,R,ugm-3,17,R,ugm-3,68,R,ugm-3,5,R,ugm-3
01-01-1995,13:00,0.5,R,mgm-3,12,R,ugm-3 (GRAV EQ),6,R,ugm-3,17,R,ugm-3,27,R,ugm-3,58,R,ugm-3,8,R,ugm-3
01-01-1995,14:00,0.8,R,mgm-3,14,R,ugm-3 (GRAV EQ),5,R,ugm-3,13,R,ugm-3,21,R,ugm-3,66,R,ugm-3,5,R,ugm-3
01-01-1995,15:00,0.8,R,mgm-3,20,R,ugm-3 (GRAV EQ),5,R,ugm-3,13,R,ugm-3,21,R,ugm-3,66,R,ugm-3,5,R,ugm-3
01-01-1995,16:00,0.7,R,mgm-3,9,R,ugm-3 (GRAV EQ),5,R,ugm-3,17,R,ugm-3,25,R,ugm-3,64,R,ugm-3,5,R,ugm-3
01-01-1995,17:00,0.8,R,mgm-3,13,R,ugm-3 (GRAV EQ),5,R,ugm-3,21,R,ugm-3,29,R,ugm-3,60,R,ugm-3,5,R,ugm-3
01-01-1995,18:00,0.8,R,mgm-3,8,R,ugm-3 (GRAV EQ),4,R,ugm-3,19,R,ugm-3,25,R,ugm-3,56,R,ugm-3,8,R,ugm-3
01-01-1995,19:00,0.8,R,mgm-3,10,R,ugm-3 (GRAV EQ),4,R,ugm-3,19,R,ugm-3,25,R,ugm-3,56,R,ugm-3,8,R,ugm-3
01-01-1995,20:00,0.6,R,mgm-3,7,R,ugm-3 (GRAV EQ),4,R,ugm-3,17,R,ugm-3,23,R,ugm-3,56,R,ugm-3,5,R,ugm-3
01-01-1995,21:00,0.8,R,mgm-3,9,R,ugm-3 (GRAV EQ),4,R,ugm-3,15,R,ugm-3,21,R,ugm-3,60,R,ugm-3,5,R,ugm-3
01-01-1995,22:00,0.7,R,mgm-3,13,R,ugm-3 (GRAV EQ),3,R,ugm-3,17,R,ugm-3,21,R,ugm-3,60,R,ugm-3,5,R,ugm-3
01-01-1995,23:00,0.6,R,mgm-3,8,R,ugm-3 (GRAV EQ),4,R,ugm-3,11,R,ugm-3,17,R,ugm-3,62,R,ugm-3,11,R,ugm-3
01-01-1995,24:00,0.7,R,mgm-3,8,R,ugm-3 (GRAV EQ),3,R,ugm-3,13,R,ugm-3,17,R,ugm-3,64,R,ugm-3,11,R,ugm-3
02-01-1995,01:00,0.5,R,mgm-3,12,R,ugm-3 (GRAV EQ),3,R,ugm-3,10,R,ugm-3,13,R,ugm-3,66,R,ugm-3,8,R,ugm-3
02-01-1995,02:00,0.3,R,mgm-3,14,R,ugm-3 (GRAV EQ),1,R,ugm-3,13,R,ugm-3,15,R,ugm-3,62,R,ugm-3,3,R,ugm-3
02-01-1995,03:00,0.3,R,mgm-3,16,R,ugm-3 (GRAV EQ),3,R,ugm-3,10,R,ugm-3,13,R,ugm-3,66,R,ugm-3,5,R,ugm-3
02-01-1995,04:00,0.2,R,mgm-3,10,R,ugm-3 (GRAV EQ),3,R,ugm-3,6,R,ugm-3,10,R,ugm-3,70,R,ugm-3,3,R,ugm-3
02-01-1995,05:00,0.1,R,mgm-3,8,R,ugm-3 (GRAV EQ),1,R,ugm-3,8,R,ugm-3,10,R,ugm-3,70,R,ugm-3,3,R,ugm-3
02-01-1995,06:00,0.1,R,mgm-3,7,R,ugm-3 (GRAV EQ),1,R,ugm-3,11,R,ugm-3,13,R,ugm-3,68,R,ugm-3,3,R,ugm-3
02-01-1995,07:00,0.2,R,mgm-3,13,R,ugm-3 (GRAV EQ),4,R,ugm-3,23,R,ugm-3,29,R,ugm-3,56,R,ugm-3,5,R,ugm-3
02-01-1995,08:00,0.2,R,mgm-3,16,R,ugm-3 (GRAV EQ),4,R,ugm-3,36,R,ugm-3,42,R,ugm-3,46,R,ugm-3,5,R,ugm-3
02-01-1995,09:00,0.5,R,mgm-3,21,R,ugm-3 (GRAV EQ),5,R,ugm-3,42,R,ugm-3,50,R,ugm-3,44,R,ugm-3,5,R,ugm-3
02-01-1995,10:00,0.7,R,mgm-3,14,R,ugm-3 (GRAV EQ),8,R,ugm-3,40,R,ugm-3,52,R,ugm-3,46,R,ugm-3,5,R,ugm-3
02-01-1995,11:00,0.8,R,mgm-3,17,R,ugm-3 (GRAV EQ),14,R,ugm-3,34,R,ugm-3,55,R,ugm-3,48,R,ugm-3,8,R,ugm-3
02-01-1995,12:00,0.8,R,mgm-3,17,R,ugm-3 (GRAV EQ),16,R,ugm-3,38,R,ugm-3,63,R,ugm-3,50,R,ugm-3,5,R,ugm-3
02-01-1995,13:00,0.7,R,mgm-3,26,R,ugm-3 (GRAV EQ),19,R,ugm-3,40,R,ugm-3,69,R,ugm-3,48,R,ugm-3,5,R,ugm-3
02-01-1995,14:00,0.6,R,mgm-3,21,R,ugm-3 (GRAV EQ),19,R,ugm-3,36,R,ugm-3,65,R,ugm-3,50,R,ugm-3,5,R,ugm-3
02-01-1995,15:00,0.8,R,mgm-3,22,R,ugm-3 (GRAV EQ),18,R,ugm-3,44,R,ugm-3,71,R,ugm-3,46,R,ugm-3,8,R,ugm-3
02-01-1995,16:00,0.9,R,mgm-3,22,R,ugm-3 (GRAV EQ),38,R,ugm-3,59,R,ugm-3,117,R,ugm-3,26,R,ugm-3,8,R,ugm-3
02-01-1995,17:00,0.8,R,mgm-3,31,R,ugm-3 (GRAV EQ),28,R,ugm-3,73,R,ugm-3,115,R,ugm-3,20,R,ugm-3,8,R,ugm-3
02-01-1995,18:00,1.2,R,mgm-3,44,R,ugm-3 (GRAV EQ),63,R,ugm-3,88,R,ugm-3,183,R,ugm-3,8,R,ugm-3,13,R,ugm-3
02-01-1995,19:00,0.8,R,mgm-3,34,R,ugm-3 (GRAV EQ),49,R,ugm-3,86,R,ugm-3,160,R,ugm-3,8,R,ugm-3,13,R,ugm-3
02-01-1995,20:00,0.8,R,mgm-3,25,R,ugm-3 (GRAV EQ),30,R,ugm-3,78,R,ugm-3,124,R,ugm-3,14,R,ugm-3,11,R,ugm-3
02-01-1995,21:00,1.3,R,mgm-3,44,R,ugm-3 (GRAV EQ),121,R,ugm-3,88,R,ugm-3,273,R,ugm-3,8,R,ugm-3,16,R,ugm-3
02-01-1995,22:00,1.5,R,mgm-3,42,R,ugm-3 (GRAV EQ),124,R,ugm-3,84,R,ugm-3,273,R,ugm-3,8,R,ugm-3,16,R,ugm-3
02-01-1995,23:00,3.8,R,mgm-3,79,R,ugm-3 (GRAV EQ),481,R,ugm-3,90,R,ugm-3,825,R,ugm-3,14,R,ugm-3,29,R,ugm-3
02-01-1995,24:00,3.8,R,mgm-3,101,R,ugm-3 (GRAV EQ),504,R,ugm-3,97,R,ugm-3,867,R,ugm-3,12,R,ugm-3,32,R,ugm-3
03-01-1995,01:00,2.6,R,mgm-3,72,R,ugm-3 (GRAV EQ),308,R,ugm-3,80,R,ugm-3,550,R,ugm-3,8,R,ugm-3,21,R,ugm-3
03-01-1995,02:00,2.9,R,mgm-3,81,R,ugm-3 (GRAV EQ),435,R,ugm-3,88,R,ugm-3,753,R,ugm-3,12,R,ugm-3,27,R,ugm-3
03-01-1995,03:00,1.5,R,mgm-3,62,R,ugm-3 (GRAV EQ),239,R,ugm-3,78,R,ugm-3,443,R,ugm-3,6,R,ugm-3,19,R,ugm-3
03-01-1995,04:00,1.2,R,mgm-3,59,R,ugm-3 (GRAV EQ),224,R,ugm-3,76,R,ugm-3,418,R,ugm-3,6,R,ugm-3,16,R,ugm-3
03-01-1995,05:00,1.2,R,mgm-3,49,R,ugm-3 (GRAV EQ),186,R,ugm-3,74,R,ugm-3,359,R,ugm-3,6,R,ugm-3,16,R,ugm-3
03-01-1995,06:00,0.9,R,mgm-3,43,R,ugm-3 (GRAV EQ),143,R,ugm-3,65,R,ugm-3,283,R,ugm-3,4,R,ugm-3,13,R,ugm-3
03-01-1995,07:00,0.9,R,mgm-3,51,R,ugm-3 (GRAV EQ),175,R,ugm-3,63,R,ugm-3,330,R,ugm-3,4,R,ugm-3,16,R,ugm-3
03-01-1995,08:00,2.3,R,mgm-3,78,R,ugm-3 (GRAV EQ),418,R,ugm-3,63,R,ugm-3,701,R,ugm-3,10,R,ugm-3,29,R,ugm-3
03-01-1995,09:00,3.2,R,mgm-3,83,R,ugm-3 (GRAV EQ),544,R,ugm-3,84,R,ugm-3,915,R,ugm-3,10,R,ugm-3,40,R,ugm-3
03-01-1995,10:00,2.6,R,mgm-3,75,R,ugm-3 (GRAV EQ),461,R,ugm-3,84,R,ugm-3,789,R,ugm-3,6,R,ugm-3,43,R,ugm-3
03-01-1995,11:00,3.1,R,mgm-3,82,R,ugm-3 (GRAV EQ),441,R,ugm-3,105,R,ugm-3,779,R,ugm-3,8,R,ugm-3,67,R,ugm-3
03-01-1995,12:00,3.6,R,mgm-3,92,R,ugm-3 (GRAV EQ),420,R,ugm-3,115,R,ugm-3,756,R,ugm-3,10,R,ugm-3,85,R,ugm-3
03-01-1995,13:00,3.6,R,mgm-3,86,R,ugm-3 (GRAV EQ),394,R,ugm-3,82,R,ugm-3,684,R,ugm-3,8,R,ugm-3,77,R,ugm-3
03-01-1995,14:00,3.4,R,mgm-3,90,R,ugm-3 (GRAV EQ),369,R,ugm-3,101,R,ugm-3,665,R,ugm-3,8,R,ugm-3,74,R,ugm-3
03-01-1995,15:00,3.8,R,mgm-3,103,R,ugm-3 (GRAV EQ),414,R,ugm-3,78,R,ugm-3,711,R,ugm-3,10,R,ugm-3,61,R,ugm-3
03-01-1995,16:00,2.8,R,mgm-3,69,R,ugm-3 (GRAV EQ),311,R,ugm-3,48,R,ugm-3,523,R,ugm-3,6,R,ugm-3,45,R,ugm-3
03-01-1995,17:00,3.1,R,mgm-3,56,R,ugm-3 (GRAV EQ),284,R,ugm-3,69,R,ugm-3,502,R,ugm-3,6,R,ugm-3,40,R,ugm-3
03-01-1995,18:00,5.1,R,mgm-3,68,R,ugm-3 (GRAV EQ),393,R,ugm-3,74,R,ugm-3,674,R,ugm-3,10,R,ugm-3,53,R,ugm-3
03-01-1995,19:00,2.4,R,mgm-3,55,R,ugm-3 (GRAV EQ),180,R,ugm-3,96,R,ugm-3,371,R,ugm-3,2,R,ugm-3,40,R,ugm-3
03-01-1995,20:00,1.3,R,mgm-3,42,R,ugm-3 (GRAV EQ),76,R,ugm-3,80,R,ugm-3,197,R,ugm-3,2,R,ugm-3,27,R,ugm-3
03-01-1995,21:00,1.0,R,mgm-3,22,R,ugm-3 (GRAV EQ),53,R,ugm-3,57,R,ugm-3,138,R,ugm-3,16,R,ugm-3,19,R,ugm-3
03-01-1995,22:00,1.0,R,mgm-3,20,R,ugm-3 (GRAV EQ),44,R,ugm-3,57,R,ugm-3,124,R,ugm-3,24,R,ugm-3,13,R,ugm-3
03-01-1995,23:00,0.9,R,mgm-3,18,R,ugm-3 (GRAV EQ),26,R,ugm-3,52,R,ugm-3,92,R,ugm-3,28,R,ugm-3,11,R,ugm-3
03-01-1995,24:00,0.8,R,mgm-3,20,R,ugm-3 (GRAV EQ),15,R,ugm-3,36,R,ugm-3,59,R,ugm-3,36,R,ugm-3,11,R,ugm-3
04-01-1995,01:00,0.9,R,mgm-3,18,R,ugm-3 (GRAV EQ),6,R,ugm-3,29,R,ugm-3,38,R,ugm-3,38,R,ugm-3,11,R,ugm-3
04-01-1995,02:00,0.7,R,mgm-3,18,R,ugm-3 (GRAV EQ),6,R,ugm-3,36,R,ugm-3,46,R,ugm-3,42,R,ugm-3,11,R,ugm-3
04-01-1995,03:00,0.8,R,mgm-3,20,R,ugm-3 (GRAV EQ),6,R,ugm-3,23,R,ugm-3,32,R,ugm-3,46,R,ugm-3,11,R,ugm-3
04-01-1995,04:00,0.8,R,mgm-3,20,R,ugm-3 (GRAV EQ),6,R,ugm-3,21,R,ugm-3,31,R,ugm-3,42,R,ugm-3,8,R,ugm-3
04-01-1995,05:00,0.8,R,mgm-3,12,R,ugm-3 (GRAV EQ),5,R,ugm-3,19,R,ugm-3,27,R,ugm-3,46,R,ugm-3,8,R,ugm-3
04-01-1995,06:00,0.8,R,mgm-3,12,R,ugm-3 (GRAV EQ),15,R,ugm-3,25,R,ugm-3,48,R,ugm-3,38,R,ugm-3,8,R,ugm-3
04-01-1995,07:00,0.8,R,mgm-3,17,R,ugm-3 (GRAV EQ),21,R,ugm-3,36,R,ugm-3,69,R,ugm-3,34,R,ugm-3,11,R,ugm-3
04-01-1995,08:00,1.3,R,mgm-3,20,R,ugm-3 (GRAV EQ),55,R,ugm-3,74,R,ugm-3,159,R,ugm-3,24,R,ugm-3,11,R,ugm-3
04-01-1995,09:00,1.6,R,mgm-3,25,R,ugm-3 (GRAV EQ),90,R,ugm-3,74,R,ugm-3,212,R,ugm-3,22,R,ugm-3,13,R,ugm-3
04-01-1995,10:00,1.5,R,mgm-3,23,R,ugm-3 (GRAV EQ),91,R,ugm-3,55,R,ugm-3,195,R,ugm-3,22,R,ugm-3,13,R,ugm-3
04-01-1995,11:00,1.6,R,mgm-3,23,R,ugm-3 (GRAV EQ),104,R,ugm-3,61,R,ugm-3,220,R,ugm-3,22,R,ugm-3,13,R,ugm-3
04-01-1995,12:00,1.7,R,mgm-3,30,R,ugm-3 (GRAV EQ),150,R,ugm-3,59,R,ugm-3,288,R,ugm-3,18,R,ugm-3,16,R,ugm-3
04-01-1995,13:00,1.6,R,mgm-3,29,R,ugm-3 (GRAV EQ),120,R,ugm-3,36,R,ugm-3,220,R,ugm-3,18,R,ugm-3,13,R,ugm-3
04-01-1995,14:00,1.4,R,mgm-3,34,R,ugm-3 (GRAV EQ),81,R,ugm-3,71,R,ugm-3,195,R,ugm-3,20,R,ugm-3,13,R,ugm-3
04-01-1995,15:00,1.4,R,mgm-3,30,R,ugm-3 (GRAV EQ),79,R,ugm-3,63,R,ugm-3,183,R,ugm-3,24,R,ugm-3,13,R,ugm-3
04-01-1995,16:00,1.4,R,mgm-3,29,R,ugm-3 (GRAV EQ),78,R,ugm-3,57,R,ugm-3,176,R,ugm-3,22,R,ugm-3,13,R,ugm-3
04-01-1995,17:00,1.9,R,mgm-3,26,R,ugm-3 (GRAV EQ),93,R,ugm-3,103,R,ugm-3,244,R,ugm-3,18,R,ugm-3,13,R,ugm-3
04-01-1995,18:00,1.7,R,mgm-3,26,R,ugm-3 (GRAV EQ),115,R,ugm-3,67,R,ugm-3,243,R,ugm-3,18,R,ugm-3,16,R,ugm-3
04-01-1995,19:00,1.2,R,mgm-3,23,R,ugm-3 (GRAV EQ),41,R,ugm-3,59,R,ugm-3,122,R,ugm-3,22,R,ugm-3,,,
04-01-1995,20:00,0.9,R,mgm-3,20,R,ugm-3 (GRAV EQ),45,R,ugm-3,38,R,ugm-3,107,R,ugm-3,20,R,ugm-3,13,R,ugm-3
04-01-1995,21:00,1.0,R,mgm-3,23,R,ugm-3 (GRAV EQ),23,R,ugm-3,46,R,ugm-3,80,R,ugm-3,22,R,ugm-3,13,R,ugm-3
04-01-1995,22:00,0.8,R,mgm-3,33,R,ugm-3 (GRAV EQ),20,R,ugm-3,50,R,ugm-3,80,R,ugm-3,24,R,ugm-3,13,R,ugm-3
04-01-1995,23:00,0.7,R,mgm-3,39,R,ugm-3 (GRAV EQ),14,R,ugm-3,38,R,ugm-3,59,R,ugm-3,28,R,ugm-3,13,R,ugm-3
04-01-1995,24:00,0.6,R,mgm-3,35,R,ugm-3 (GRAV EQ),16,R,ugm-3,32,R,ugm-3,57,R,ugm-3,28,R,ugm-3,11,R,ugm-3
05-01-1995,01:00,0.3,R,mgm-3,38,R,ugm-3 (GRAV EQ),6,R,ugm-3,21,R,ugm-3,31,R,ugm-3,40,R,ugm-3,11,R,ugm-3
05-01-1995,02:00,0.6,R,mgm-3,38,R,ugm-3 (GRAV EQ),5,R,ugm-3,25,R,ugm-3,32,R,ugm-3,38,R,ugm-3,11,R,ugm-3
05-01-1995,03:00,0.5,R,mgm-3,29,R,ugm-3 (GRAV EQ),4,R,ugm-3,21,R,ugm-3,27,R,ugm-3,40,R,ugm-3,8,R,ugm-3
05-01-1995,04:00,0.3,R,mgm-3,20,R,ugm-3 (GRAV EQ),4,R,ugm-3,17,R,ugm-3,23,R,ugm-3,42,R,ugm-3,8,R,ugm-3
05-01-1995,05:00,0.5,R,mgm-3,7,R,ugm-3 (GRAV EQ),5,R,ugm-3,17,R,ugm-3,25,R,ugm-3,42,R,ugm-3,8,R,ugm-3
05-01-1995,06:00,0.3,R,mgm-3,3,R,ugm-3 (GRAV EQ),5,R,ugm-3,19,R,ugm-3,27,R,ugm-3,42,R,ugm-3,5,R,ugm-3
05-01-1995,07:00,0.7,R,mgm-3,3,R,ugm-3 (GRAV EQ),6,R,ugm-3,19,R,ugm-3,29,R,ugm-3,40,R,ugm-3,5,R,ugm-3
05-01-1995,08:00,0.9,R,mgm-3,8,R,ugm-3 (GRAV EQ),14,R,ugm-3,32,R,ugm-3,53,R,ugm-3,30,R,ugm-3,5,R,ugm-3
05-01-1995,09:00,0.9,R,mgm-3,7,R,ugm-3 (GRAV EQ),26,R,ugm-3,34,R,ugm-3,74,R,ugm-3,24,R,ugm-3,8,R,ugm-3
05-01-1995,10:00,0.8,R,mgm-3,12,R,ugm-3 (GRAV EQ),39,R,ugm-3,44,R,ugm-3,103,R,ugm-3,20,R,ugm-3,11,R,ugm-3
05-01-1995,11:00,0.7,R,mgm-3,13,R,ugm-3 (GRAV EQ),24,R,ugm-3,36,R,ugm-3,73,R,ugm-3,22,R,ugm-3,8,R,ugm-3
05-01-1995,12:00,1.0,R,mgm-3,14,R,ugm-3 (GRAV EQ),30,R,ugm-3,40,R,ugm-3,86,R,ugm-3,18,R,ugm-3,,,
05-01-1995,13:00,,,,,,,35,R,ugm-3,36,R,ugm-3,90,R,ugm-3,,,,,,
05-01-1995,14:00,1.2,R,mgm-3,13,R,ugm-3 (GRAV EQ),,,,,,,,,,28,R,ugm-3,,,
05-01-1995,15:00,1.0,R,mgm-3,27,R,ugm-3 (GRAV EQ),48,R,ugm-3,84,R,ugm-3,157,R,ugm-3,22,R,ugm-3,,,
05-01-1995,16:00,0.8,R,mgm-3,33,R,ugm-3 (GRAV EQ),33,R,ugm-3,65,R,ugm-3,115,R,ugm-3,30,R,ugm-3,,,
05-01-1995,17:00,1.0,R,mgm-3,51,R,ugm-3 (GRAV EQ),50,R,ugm-3,84,R,ugm-3,160,R,ugm-3,12,R,ugm-3,29,R,ugm-3
05-01-1995,18:00,1.4,R,mgm-3,60,R,ugm-3 (GRAV EQ),46,R,ugm-3,76,R,ugm-3,147,R,ugm-3,14,R,ugm-3,16,R,ugm-3
05-01-1995,19:00,1.6,R,mgm-3,62,R,ugm-3 (GRAV EQ),80,R,ugm-3,84,R,ugm-3,206,R,ugm-3,8,R,ugm-3,27,R,ugm-3
05-01-1995,20:00,0.8,R,mgm-3,34,R,ugm-3 (GRAV EQ),16,R,ugm-3,57,R,ugm-3,82,R,ugm-3,26,R,ugm-3,13,R,ugm-3
05-01-1995,21:00,0.6,R,mgm-3,33,R,ugm-3 (GRAV EQ),15,R,ugm-3,53,R,ugm-3,76,R,ugm-3,32,R,ugm-3,13,R,ugm-3
05-01-1995,22:00,0.6,R,mgm-3,34,R,ugm-3 (GRAV EQ),8,R,ugm-3,50,R,ugm-3,61,R,ugm-3,32,R,ugm-3,13,R,ugm-3
05-01-1995,23:00,0.6,R,mgm-3,30,R,ugm-3 (GRAV EQ),6,R,ugm-3,42,R,ugm-3,52,R,ugm-3,40,R,ugm-3,13,R,ugm-3
05-01-1995,24:00,0.6,R,mgm-3,25,R,ugm-3 (GRAV EQ),5,R,ugm-3,27,R,ugm-3,34,R,ugm-3,52,R,ugm-3,16,R,ugm-3
06-01-1995,01:00,0.5,R,mgm-3,29,R,ugm-3 (GRAV EQ),4,R,ugm-3,27,R,ugm-3,32,R,ugm-3,48,R,ugm-3,13,R,ugm-3
06-01-1995,02:00,0.6,R,mgm-3,36,R,ugm-3 (GRAV EQ),4,R,ugm-3,31,R,ugm-3,36,R,ugm-3,48,R,ugm-3,11,R,ugm-3
06-01-1995,03:00,0.6,R,mgm-3,34,R,ugm-3 (GRAV EQ),3,R,ugm-3,27,R,ugm-3,31,R,ugm-3,48,R,ugm-3,8,R,ugm-3
06-01-1995,04:00,0.5,R,mgm-3,27,R,ugm-3 (GRAV EQ),3,R,ugm-3,17,R,ugm-3,21,R,ugm-3,58,R,ugm-3,8,R,ugm-3
06-01-1995,05:00,0.5,R,mgm-3,26,R,ugm-3 (GRAV EQ),3,R,ugm-3,13,R,ugm-3,17,R,ugm-3,64,R,ugm-3,8,R,ugm-3
06-01-1995,06:00,0.3,R,mgm-3,20,R,ugm-3 (GRAV EQ),4,R,ugm-3,17,R,ugm-3,23,R,ugm-3,58,R,ugm-3,8,R,ugm-3
06-01-1995,07:00,0.6,R,mgm-3,22,R,ugm-3 (GRAV EQ),5,R,ugm-3,31,R,ugm-3,38,R,ugm-3,46,R,ugm-3,8,R,ugm-3
06-01-1995,08:00,0.8,R,mgm-3,22,R,ugm-3 (GRAV EQ),13,R,ugm-3,55,R,ugm-3,74,R,ugm-3,30,R,ugm-3,24,R,ugm-3
06-01-1995,09:00,1.0,R,mgm-3,36,R,ugm-3 (GRAV EQ),30,R,ugm-3,67,R,ugm-3,113,R,ugm-3,22,R,ugm-3,69,R,ugm-3
06-01-1995,10:00,0.9,R,mgm-3,42,R,ugm-3 (GRAV EQ),26,R,ugm-3,65,R,ugm-3,105,R,ugm-3,34,R,ugm-3,64,R,ugm-3
06-01-1995,11:00,0.7,R,mgm-3,33,R,ugm-3 (GRAV EQ),18,R,ugm-3,50,R,ugm-3,76,R,ugm-3,40,R,ugm-3,29,R,ugm-3
06-01-1995,12:00,0.8,R,mgm-3,31,R,ugm-3 (GRAV EQ),15,R,ugm-3,46,R,ugm-3,69,R,ugm-3,48,R,ugm-3,56,R,ugm-3
06-01-1995,13:00,0.7,R,mgm-3,27,R,ugm-3 (GRAV EQ),14,R,ugm-3,40,R,ugm-3,61,R,ugm-3,54,R,ugm-3,67,R,ugm-3
06-01-1995,14:00,0.6,R,mgm-3,33,R,ugm-3 (GRAV EQ),14,R,ugm-3,38,R,ugm-3,59,R,ugm-3,52,R,ugm-3,56,R,ugm-3
06-01-1995,15:00,0.5,R,mgm-3,30,R,ugm-3 (GRAV EQ),28,R,ugm-3,55,R,ugm-3,97,R,ugm-3,34,R,ugm-3,21,R,ugm-3
06-01-1995,16:00,0.7,R,mgm-3,31,R,ugm-3 (GRAV EQ),28,R,ugm-3,63,R,ugm-3,105,R,ugm-3,22,R,ugm-3,21,R,ugm-3
06-01-1995,17:00,1.6,R,mgm-3,39,R,ugm-3 (GRAV EQ),49,R,ugm-3,82,R,ugm-3,157,R,ugm-3,22,R,ugm-3,72,R,ugm-3
06-01-1995,18:00,2.1,R,mgm-3,43,R,ugm-3 (GRAV EQ),29,R,ugm-3,73,R,ugm-3,117,R,ugm-3,34,R,ugm-3,114,R,ugm-3
06-01-1995,19:00,2.2,R,mgm-3,42,R,ugm-3 (GRAV EQ),30,R,ugm-3,74,R,ugm-3,120,R,ugm-3,32,R,ugm-3,98,R,ugm-3
06-01-1995,20:00,1.6,R,mgm-3,39,R,ugm-3 (GRAV EQ),41,R,ugm-3,73,R,ugm-3,136,R,ugm-3,20,R,ugm-3,74,R,ugm-3
06-01-1995,21:00,1.4,R,mgm-3,38,R,ugm-3 (GRAV EQ),20,R,ugm-3,61,R,ugm-3,92,R,ugm-3,22,R,ugm-3,45,R,ugm-3
06-01-1995,22:00,0.9,R,mgm-3,29,R,ugm-3 (GRAV EQ),6,R,ugm-3,48,R,ugm-3,57,R,ugm-3,28,R,ugm-3,13,R,ugm-3
06-01-1995,23:00,1.6,R,mgm-3,39,R,ugm-3 (GRAV EQ),83,R,ugm-3,65,R,ugm-3,191,R,ugm-3,10,R,ugm-3,16,R,ugm-3
06-01-1995,24:00,1.7,R,mgm-3,40,R,ugm-3 (GRAV EQ),126,R,ugm-3,71,R,ugm-3,264,R,ugm-3,6,R,ugm-3,16,R,ugm-3
07-01-1995,01:00,1.9,R,mgm-3,39,R,ugm-3 (GRAV EQ),146,R,ugm-3,52,R,ugm-3,275,R,ugm-3,6,R,ugm-3,13,R,ugm-3
07-01-1995,02:00,2.2,R,mgm-3,42,R,ugm-3 (GRAV EQ),264,R,ugm-3,67,R,ugm-3,470,R,ugm-3,8,R,ugm-3,16,R,ugm-3
07-01-1995,03:00,3.4,R,mgm-3,65,R,ugm-3 (GRAV EQ),459,R,ugm-3,52,R,ugm-3,753,R,ugm-3,10,R,ugm-3,21,R,ugm-3
07-01-1995,04:00,2.0,R,mgm-3,48,R,ugm-3 (GRAV EQ),266,R,ugm-3,52,R,ugm-3,458,R,ugm-3,6,R,ugm-3,16,R,ugm-3
07-01-1995,05:00,1.3,R,mgm-3,39,R,ugm-3 (GRAV EQ),125,R,ugm-3,50,R,ugm-3,241,R,ugm-3,4,R,ugm-3,11,R,ugm-3
07-01-1995,06:00,1.0,R,mgm-3,42,R,ugm-3 (GRAV EQ),128,R,ugm-3,50,R,ugm-3,244,R,ugm-3,4,R,ugm-3,11,R,ugm-3
07-01-1995,07:00,1.3,R,mgm-3,59,R,ugm-3 (GRAV EQ),195,R,ugm-3,50,R,ugm-3,348,R,ugm-3,6,R,ugm-3,13,R,ugm-3
07-01-1995,08:00,1.7,R,mgm-3,68,R,ugm-3 (GRAV EQ),253,R,ugm-3,59,R,ugm-3,445,R,ugm-3,8,R,ugm-3,19,R,ugm-3
07-01-1995,09:00,2.7,R,mgm-3,79,R,ugm-3 (GRAV EQ),466,R,ugm-3,76,R,ugm-3,789,R,ugm-3,14,R,ugm-3,29,R,ugm-3
07-01-1995,10:00,2.4,R,mgm-3,72,R,ugm-3 (GRAV EQ),388,R,ugm-3,86,R,ugm-3,678,R,ugm-3,8,R,ugm-3,29,R,ugm-3
07-01-1995,11:00,2.9,R,mgm-3,81,R,ugm-3 (GRAV EQ),506,R,ugm-3,92,R,ugm-3,865,R,ugm-3,10,R,ugm-3,35,R,ugm-3
07-01-1995,12:00,5.6,R,mgm-3,105,R,ugm-3 (GRAV EQ),708,R,ugm-3,48,R,ugm-3,1129,R,ugm-3,16,R,ugm-3,48,R,ugm-3
07-01-1995,13:00,3.5,R,mgm-3,75,R,ugm-3 (GRAV EQ),398,R,ugm-3,105,R,ugm-3,712,R,ugm-3,6,R,ugm-3,32,R,ugm-3
07-01-1995,14:00,1.0,R,mgm-3,27,R,ugm-3 (GRAV EQ),68,R,ugm-3,73,R,ugm-3,176,R,ugm-3,8,R,ugm-3,13,R,ugm-3
07-01-1995,15:00,1.0,R,mgm-3,29,R,ugm-3 (GRAV EQ),30,R,ugm-3,57,R,ugm-3,103,R,ugm-3,16,R,ugm-3,8,R,ugm-3
07-01-1995,16:00,1.0,R,mgm-3,27,R,ugm-3 (GRAV EQ),40,R,ugm-3,69,R,ugm-3,130,R,ugm-3,18,R,ugm-3,8,R,ugm-3
07-01-1995,17:00,0.9,R,mgm-3,26,R,ugm-3 (GRAV EQ),49,R,ugm-3,74,R,ugm-3,149,R,ugm-3,8,R,ugm-3,5,R,ugm-3
07-01-1995,18:00,0.9,R,mgm-3,27,R,ugm-3 (GRAV EQ),44,R,ugm-3,65,R,ugm-3,132,R,ugm-3,6,R,ugm-3,5,R,ugm-3
07-01-1995,19:00,0.8,R,mgm-3,25,R,ugm-3 (GRAV EQ),39,R,ugm-3,63,R,ugm-3,122,R,ugm-3,8,R,ugm-3,5,R,ugm-3
07-01-1995,20:00,0.3,R,mgm-3,9,R,ugm-3 (GRAV EQ),11,R,ugm-3,52,R,ugm-3,69,R,ugm-3,24,R,ugm-3,3,R,ugm-3
07-01-1995,21:00,0.1,R,mgm-3,13,R,ugm-3 (GRAV EQ),5,R,ugm-3,38,R,ugm-3,46,R,ugm-3,30,R,ugm-3,3,R,ugm-3
07-01-1995,22:00,0.1,R,mgm-3,12,R,ugm-3 (GRAV EQ),6,R,ugm-3,31,R,ugm-3,40,R,ugm-3,42,R,ugm-3,3,R,ugm-3
07-01-1995,23:00,0.3,R,mgm-3,7,R,ugm-3 (GRAV EQ),8,R,ugm-3,25,R,ugm-3,36,R,ugm-3,48,R,ugm-3,3,R,ugm-3
07-01-1995,24:00,0.6,R,mgm-3,4,R,ugm-3 (GRAV EQ),6,R,ugm-3,19,R,ugm-3,29,R,ugm-3,52,R,ugm-3,3,R,ugm-3
08-01-1995,01:00,0.8,R,mgm-3,7,R,ugm-3 (GRAV EQ),5,R,ugm-3,13,R,ugm-3,21,R,ugm-3,56,R,ugm-3,0,R,ugm-3
08-01-1995,02:00,0.7,R,mgm-3,4,R,ugm-3 (GRAV EQ),4,R,ugm-3,17,R,ugm-3,23,R,ugm-3,58,R,ugm-3,0,R,ugm-3
08-01-1995,03:00,0.7,R,mgm-3,5,R,ugm-3 (GRAV EQ),3,R,ugm-3,15,R,ugm-3,19,R,ugm-3,60,R,ugm-3,3,R,ugm-3
08-01-1995,04:00,0.7,R,mgm-3,3,R,ugm-3 (GRAV EQ),3,R,ugm-3,8,R,ugm-3,11,R,ugm-3,62,R,ugm-3,3,R,ugm-3
08-01-1995,05:00,0.7,R,mgm-3,5,R,ugm-3 (GRAV EQ),3,R,ugm-3,6,R,ugm-3,10,R,ugm-3,66,R,ugm-3,3,R,ugm-3
08-01-1995,06:00,0.5,R,mgm-3,5,R,ugm-3 (GRAV EQ),4,R,ugm-3,4,R,ugm-3,10,R,ugm-3,68,R,ugm-3,3,R,ugm-3
08-01-1995,07:00,0.3,R,mgm-3,4,R,ugm-3 (GRAV EQ),1,R,ugm-3,6,R,ugm-3,8,R,ugm-3,72,R,ugm-3,0,R,ugm-3
08-01-1995,08:00,0.2,R,mgm-3,1,R,ugm-3 (GRAV EQ),5,R,ugm-3,15,R,ugm-3,23,R,ugm-3,58,R,ugm-3,32,R,ugm-3
08-01-1995,09:00,0.2,R,mgm-3,5,R,ugm-3 (GRAV EQ),4,R,ugm-3,19,R,ugm-3,25,R,ugm-3,50,R,ugm-3,32,R,ugm-3
08-01-1995,10:00,0.2,R,mgm-3,5,R,ugm-3 (GRAV EQ),5,R,ugm-3,23,R,ugm-3,31,R,ugm-3,44,R,ugm-3,29,R,ugm-3
08-01-1995,11:00,0.5,R,mgm-3,4,R,ugm-3 (GRAV EQ),6,R,ugm-3,29,R,ugm-3,38,R,ugm-3,48,R,ugm-3,5,R,ugm-3
08-01-1995,12:00,0.5,R,mgm-3,7,R,ugm-3 (GRAV EQ),8,R,ugm-3,29,R,ugm-3,40,R,ugm-3,50,R,ugm-3,3,R,ugm-3
08-01-1995,13:00,0.3,R,mgm-3,9,R,ugm-3 (GRAV EQ),15,R,ugm-3,36,R,ugm-3,59,R,ugm-3,50,R,ugm-3,3,R,ugm-3
08-01-1995,14:00,0.6,R,mgm-3,22,R,ugm-3 (GRAV EQ),16,R,ugm-3,38,R,ugm-3,63,R,ugm-3,42,R,ugm-3,3,R,ugm-3
08-01-1995,15:00,0.5,R,mgm-3,20,R,ugm-3 (GRAV EQ),23,R,ugm-3,46,R,ugm-3,80,R,ugm-3,38,R,ugm-3,5,R,ugm-3
08-01-1995,16:00,0.3,R,mgm-3,18,R,ugm-3 (GRAV EQ),11,R,ugm-3,44,R,ugm-3,61,R,ugm-3,40,R,ugm-3,5,R,ugm-3
08-01-1995,17:00,0.6,R,mgm-3,16,R,ugm-3 (GRAV EQ),10,R,ugm-3,53,R,ugm-3,69,R,ugm-3,36,R,ugm-3,8,R,ugm-3
08-01-1995,18:00,0.9,R,mgm-3,17,R,ugm-3 (GRAV EQ),8,R,ugm-3,57,R,ugm-3,69,R,ugm-3,32,R,ugm-3,21,R,ugm-3
08-01-1995,19:00,0.9,R,mgm-3,21,R,ugm-3 (GRAV EQ),15,R,ugm-3,69,R,ugm-3,92,R,ugm-3,12,R,ugm-3,13,R,ugm-3
08-01-1995,20:00,0.8,R,mgm-3,22,R,ugm-3 (GRAV EQ),11,R,ugm-3,67,R,ugm-3,84,R,ugm-3,14,R,ugm-3,11,R,ugm-3
08-01-1995,21:00,0.8,R,mgm-3,25,R,ugm-3 (GRAV EQ),15,R,ugm-3,61,R,ugm-3,84,R,ugm-3,18,R,ugm-3,5,R,ugm-3
08-01-1995,22:00,0.6,R,mgm-3,17,R,ugm-3 (GRAV EQ),8,R,ugm-3,50,R,ugm-3,61,R,ugm-3,22,R,ugm-3,5,R,ugm-3
08-01-1995,23:00,0.6,R,mgm-3,21,R,ugm-3 (GRAV EQ),5,R,ugm-3,32,R,ugm-3,40,R,ugm-3,34,R,ugm-3,5,R,ugm-3
08-01-1995,24:00,0.6,R,mgm-3,22,R,ugm-3 (GRAV EQ),5,R,ugm-3,29,R,ugm-3,36,R,ugm-3,32,R,ugm-3,16,R,ugm-3
09-01-1995,01:00,0.5,R,mgm-3,21,R,ugm-3 (GRAV EQ),4,R,ugm-3,23,R,ugm-3,29,R,ugm-3,38,R,ugm-3,24,R,ugm-3
09-01-1995,02:00,0.5,R,mgm-3,21,R,ugm-3 (GRAV EQ),4,R,ugm-3,32,R,ugm-3,38,R,ugm-3,38,R,ugm-3,32,R,ugm-3
09-01-1995,03:00,0.6,R,mgm-3,22,R,ugm-3 (GRAV EQ),3,R,ugm-3,17,R,ugm-3,21,R,ugm-3,50,R,ugm-3,19,R,ugm-3
09-01-1995,04:00,0.5,R,mgm-3,16,R,ugm-3 (GRAV EQ),3,R,ugm-3,15,R,ugm-3,19,R,ugm-3,52,R,ugm-3,8,R,ugm-3
09-01-1995,05:00,0.3,R,mgm-3,22,R,ugm-3 (GRAV EQ),4,R,ugm-3,19,R,ugm-3,25,R,ugm-3,42,R,ugm-3,19,R,ugm-3
09-01-1995,06:00,0.5,R,mgm-3,26,R,ugm-3 (GRAV EQ),5,R,ugm-3,27,R,ugm-3,34,R,ugm-3,36,R,ugm-3,27,R,ugm-3
09-01-1995,07:00,0.5,R,mgm-3,29,R,ugm-3 (GRAV EQ),8,R,ugm-3,44,R,ugm-3,55,R,ugm-3,22,R,ugm-3,29,R,ugm-3
09-01-1995,08:00,0.7,R,mgm-3,34,R,ugm-3 (GRAV EQ),23,R,ugm-3,53,R,ugm-3,88,R,ugm-3,18,R,ugm-3,21,R,ugm-3
09-01-1995,09:00,0.8,R,mgm-3,36,R,ugm-3 (GRAV EQ),48,R,ugm-3,71,R,ugm-3,143,R,ugm-3,10,R,ugm-3,24,R,ugm-3
09-01-1995,10:00,0.7,R,mgm-3,33,R,ugm-3 (GRAV EQ),39,R,ugm-3,67,R,ugm-3,126,R,ugm-3,20,R,ugm-3,19,R,ugm-3
09-01-1995,11:00,0.6,R,mgm-3,35,R,ugm-3 (GRAV EQ),25,R,ugm-3,53,R,ugm-3,92,R,ugm-3,36,R,ugm-3,27,R,ugm-3
09-01-1995,12:00,0.6,R,mgm-3,29,R,ugm-3 (GRAV EQ),25,R,ugm-3,42,R,ugm-3,80,R,ugm-3,42,R,ugm-3,29,R,ugm-3
09-01-1995,13:00,0.9,R,mgm-3,31,R,ugm-3 (GRAV EQ),20,R,ugm-3,50,R,ugm-3,80,R,ugm-3,46,R,ugm-3,,,
09-01-1995,14:00,0.8,R,mgm-3,33,R,ugm-3 (GRAV EQ),19,R,ugm-3,34,R,ugm-3,63,R,ugm-3,54,R,ugm-3,19,R,ugm-3
09-01-1995,15:00,0.8,R,mgm-3,30,R,ugm-3 (GRAV EQ),14,R,ugm-3,40,R,ugm-3,61,R,ugm-3,54,R,ugm-3,8,R,ugm-3
09-01-1995,16:00,0.8,R,mgm-3,38,R,ugm-3 (GRAV EQ),16,R,ugm-3,34,R,ugm-3,59,R,ugm-3,54,R,ugm-3,5,R,ugm-3
09-01-1995,17:00,1.0,R,mgm-3,35,R,ugm-3 (GRAV EQ),20,R,ugm-3,42,R,ugm-3,73,R,ugm-3,48,R,ugm-3,8,R,ugm-3
09-01-1995,18:00,0.9,R,mgm-3,31,R,ugm-3 (GRAV EQ),21,R,ugm-3,38,R,ugm-3,71,R,ugm-3,42,R,ugm-3,5,R,ugm-3
09-01-1995,19:00,0.8,R,mgm-3,34,R,ugm-3 (GRAV EQ),10,R,ugm-3,38,R,ugm-3,53,R,ugm-3,46,R,ugm-3,5,R,ugm-3
09-01-1995,20:00,0.8,R,mgm-3,29,R,ugm-3 (GRAV EQ),6,R,ugm-3,27,R,ugm-3,36,R,ugm-3,50,R,ugm-3,8,R,ugm-3
09-01-1995,21:00,0.7,R,mgm-3,30,R,ugm-3 (GRAV EQ),6,R,ugm-3,23,R,ugm-3,32,R,ugm-3,54,R,ugm-3,11,R,ugm-3
09-01-1995,22:00,0.8,R,mgm-3,25,R,ugm-3 (GRAV EQ),4,R,ugm-3,19,R,ugm-3,25,R,ugm-3,60,R,ugm-3,8,R,ugm-3
09-01-1995,23:00,0.8,R,mgm-3,21,R,ugm-3 (GRAV EQ),4,R,ugm-3,13,R,ugm-3,19,R,ugm-3,64,R,ugm-3,5,R,ugm-3
09-01-1995,24:00,0.5,R,mgm-3,18,R,ugm-3 (GRAV EQ),3,R,ugm-3,13,R,ugm-3,17,R,ugm-3,68,R,ugm-3,5,R,ugm-3
10-01-1995,01:00,0.3,R,mgm-3,14,R,ugm-3 (GRAV EQ),4,R,ugm-3,4,R,ugm-3,10,R,ugm-3,72,R,ugm-3,3,R,ugm-3
10-01-1995,02:00,0.2,R,mgm-3,9,R,ugm-3 (GRAV EQ),4,R,ugm-3,6,R,ugm-3,11,R,ugm-3,72,R,ugm-3,0,R,ugm-3
10-01-1995,03:00,0.2,R,mgm-3,10,R,ugm-3 (GRAV EQ),3,R,ugm-3,4,R,ugm-3,8,R,ugm-3,74,R,ugm-3,3,R,ugm-3
10-01-1995,04:00,0.3,R,mgm-3,9,R,ugm-3 (GRAV EQ),4,R,ugm-3,2,R,ugm-3,8,R,ugm-3,74,R,ugm-3,3,R,ugm-3
10-01-1995,05:00,0.2,R,mgm-3,4,R,ugm-3 (GRAV EQ),3,R,ugm-3,8,R,ugm-3,11,R,ugm-3,70,R,ugm-3,3,R,ugm-3
10-01-1995,06:00,0.2,R,mgm-3,8,R,ugm-3 (GRAV EQ),4,R,ugm-3,11,R,ugm-3,17,R,ugm-3,62,R,ugm-3,5,R,ugm-3
10-01-1995,07:00,0.2,R,mgm-3,5,R,ugm-3 (GRAV EQ),5,R,ugm-3,29,R,ugm-3,36,R,ugm-3,48,R,ugm-3,5,R,ugm-3
10-01-1995,08:00,0.3,R,mgm-3,12,R,ugm-3 (GRAV EQ),14,R,ugm-3,52,R,ugm-3,73,R,ugm-3,30,R,ugm-3,5,R,ugm-3
10-01-1995,09:00,0.5,R,mgm-3,13,R,ugm-3 (GRAV EQ),24,R,ugm-3,55,R,ugm-3,92,R,ugm-3,26,R,ugm-3,8,R,ugm-3
10-01-1995,10:00,0.6,R,mgm-3,26,R,ugm-3 (GRAV EQ),50,R,ugm-3,61,R,ugm-3,138,R,ugm-3,18,R,ugm-3,8,R,ugm-3
10-01-1995,11:00,0.3,R,mgm-3,22,R,ugm-3 (GRAV EQ),20,R,ugm-3,46,R,ugm-3,76,R,ugm-3,40,R,ugm-3,5,R,ugm-3